Regional Weather Roundup
Issued by NWS

Home | Current Version | Previous Version | Graphics & Text | Print | Product List | Glossary On
Versions: 1 2 3 4 5 6 7 8 9 10 11 12 13 14 15 16 17 18 19 20 21 22 23 24 25 26 27 28 29 30 31 32 33 34 35 36 37 38 39 40 41 42 43 44 45 46 47 48 49 50
000
ASUS45 KCYS 260010
RWRWY

WYOMING REGIONAL WEATHER ROUNDUP
NATIONAL WEATHER SERVICE CHEYENNE WY
500 PM MST TUE NOV 25 2014

NOTE:  "FAIR" INDICATES FEW OR NO CLOUDS BELOW 12,000 FEET
WITH NO SIGNIFICANT WEATHER AND/OR OBSTRUCTIONS TO VISIBILITY.

WYZ001-260100-
YELLOWSTONE NATIONAL PARK

CITY           SKY/WX    TMP DP  RH WIND       PRES   REMARKS
LK YELLOWSTONE   N/A     28  26  92 CALM      30.03S
6HR MIN TEMP:  25; 6HR MAX TEMP:  29; 6HR PCP:  0.12;

W YELLOWSTONE  NOT AVBL

$$
WYZ002>013-054>058-071-098>099-260100-
NORTHERN WYOMING

CITY           SKY/WX    TMP DP  RH WIND       PRES   REMARKS
JACKSON        LGT SNOW  34  34 100 S7        30.03F WCI  28
CODY           CLOUDY    28  27  93 N20       30.03R WCI  15
GREYBULL       LGT SNOW  31  27  85 NW22      30.02R FOG     WCI  18
6HR MIN TEMP:  28; 6HR MAX TEMP:  33; 6HR PCP:  0.17;

WORLAND        LGT SNOW  32  31  96 W10       30.02R VSB 1   WCI  24
6HR MIN TEMP:  29; 6HR MAX TEMP:  33; 6HR PCP:  0.05;

SHERIDAN       LGT SNOW  30  27  88 W24       30.05R VSB 1   WCI  16
6HR MIN TEMP:  30; 6HR MAX TEMP:  34; 6HR PCP:  0.26;

BUFFALO        LGT SNOW  27  23  85 NW29G43   30.01R VSB 3/4 WCI  11
6HR MIN TEMP:  27; 6HR MAX TEMP:  36; 6HR PCP:  0.06;

GILLETTE       LGT SNOW  28  26  92 NW22G32   29.96R VSB 1   WCI  14
6HR MIN TEMP:  29; 6HR MAX TEMP:  33; 6HR PCP:  0.14;

HULETT           N/A    N/A N/A N/A MISG        N/A
NEWCASTLE      FAIR      32  30  93 NW16      29.91R WCI  21

$$
WYZ014>020-022>026-101>103-260100-
CENTRAL WYOMING

CITY           SKY/WX    TMP DP  RH WIND       PRES   REMARKS
BIG PINEY      MOCLDY   N/A N/A N/A SE6       30.07S
PINEDALE       LGT SNOW  30  30 100 W5        30.08S WCI  25
DUBOIS         LGT SNOW  32  30  93 N17       29.95R WCI  21
LANDER         CLOUDY    42  24  49 CALM      29.95R
6HR MIN TEMP:  34; 6HR MAX TEMP:  46;

RIVERTON       MOCLDY    32  23  69 N13       29.96R WCI  22
6HR MIN TEMP:  30; 6HR MAX TEMP:  46;

CASPER         CLOUDY    30  25  81 NE8       29.97R WCI  22
6HR MIN TEMP:  30; 6HR MAX TEMP:  46; 6HR PCP: TRACE;

DOUGLAS        CLOUDY   N/A N/A N/A N14       29.95R
                                      6HR PCP: TRACE;


$$
WYZ021-027>030-104>119-260100-
SOUTHERN WYOMING

CITY           SKY/WX    TMP DP  RH WIND       PRES   REMARKS
EVANSTON       CLOUDY    31  30  96 SW22G33   30.23R WCI  18
6HR MIN TEMP:  31; 6HR MAX TEMP:  34; 6HR PCP: TRACE;

FORT BRIDGER   CLOUDY    35  32  88 W26G36    30.19S WCI  22
ROCK SPRINGS   CLOUDY    35  27  72 W29G36    30.09R WCI  22
6HR MIN TEMP:  33; 6HR MAX TEMP:  37;

DIXON          CLOUDY    34  23  64 SW17G24   30.13F WCI  23
RAWLINS        PTCLDY    35  27  72 W32G44    29.97S WCI  21
6HR MIN TEMP:  28; 6HR MAX TEMP:  36;

SARATOGA       CLOUDY    34  27  75 W30G38    30.00F WCI  20
LARAMIE        PTCLDY    31  22  69 W32G45    29.89S WCI  16
6HR MIN TEMP:  30; 6HR MAX TEMP:  36;

CHEYENNE       MOCLDY    40  23  50 NW26G40   29.87R WCI  29
6HR MIN TEMP:  36; 6HR MAX TEMP:  42;

TORRINGTON     FLURRIES  33  31  92 NW14      29.93R WCI  23
6HR MIN TEMP:  32; 6HR MAX TEMP:  47; 6HR PCP:  0.04;

PINE BLUFFS    CLOUDY    37  28  70 N18G26    29.89R WCI  27

$$



USA.gov is the U.S. government's official web portal to all federal, state and local government web resources and services.